TimeMDT,TemperatureF,Dew PointF,Humidity,Sea Level PressureIn,VisibilityMPH,Wind Direction,Wind SpeedMPH,Gust SpeedMPH,PrecipitationIn,Events,Conditions,WindDirDegrees,DateUTC
12:53 AM,46.0,34.0,63,30.08,10.0,WNW,6.9,-,N/A,,Clear,300,2012-10-14 06:53:00
1:53 AM,44.1,34.0,68,30.10,10.0,WNW,8.1,-,N/A,,Clear,300,2012-10-14 07:53:00
2:53 AM,42.1,34.0,73,30.12,10.0,Calm,Calm,-,N/A,,Mostly Cloudy,0,2012-10-14 08:53:00
3:53 AM,42.1,33.1,70,30.13,10.0,Calm,Calm,-,N/A,,Clear,0,2012-10-14 09:53:00
4:53 AM,45.0,34.0,65,30.12,10.0,NW,3.5,-,N/A,,Scattered Clouds,320,2012-10-14 10:53:00
5:53 AM,37.9,33.1,83,30.17,10.0,SW,4.6,-,N/A,,Clear,220,2012-10-14 11:53:00
6:53 AM,35.1,30.9,85,30.19,10.0,South,3.5,-,N/A,,Clear,180,2012-10-14 12:53:00
7:53 AM,39.9,32.0,73,30.19,10.0,Calm,Calm,-,N/A,,Partly Cloudy,0,2012-10-14 13:53:00
8:53 AM,45.0,36.0,71,30.18,10.0,Calm,Calm,-,N/A,,Clear,0,2012-10-14 14:53:00
9:53 AM,54.0,35.1,49,30.16,10.0,East,3.5,-,N/A,,Clear,90,2012-10-14 15:53:00
10:53 AM,60.1,34.0,38,30.14,10.0,ENE,3.5,-,N/A,,Clear,70,2012-10-14 16:53:00
11:53 AM,64.9,30.9,28,30.10,10.0,NNW,15.0,21.9,N/A,,Clear,330,2012-10-14 17:53:00
12:53 PM,66.0,30.9,27,30.09,10.0,WNW,8.1,-,N/A,,Clear,290,2012-10-14 18:53:00
1:53 PM,68.0,28.4,23,30.09,10.0,WNW,5.8,-,N/A,,Clear,300,2012-10-14 19:53:00
2:53 PM,68.0,28.0,22,30.04,10.0,Variable,4.6,-,N/A,,Clear,0,2012-10-14 20:53:00
3:53 PM,70.0,28.0,21,30.02,10.0,NW,10.4,-,N/A,,Clear,310,2012-10-14 21:53:00
4:53 PM,68.0,30.9,25,30.00,10.0,SSW,3.5,-,N/A,,Clear,200,2012-10-14 22:53:00
5:53 PM,64.9,34.0,32,30.03,10.0,South,5.8,-,N/A,,Clear,190,2012-10-14 23:53:00
6:53 PM,51.1,36.0,56,30.06,10.0,Variable,3.5,-,N/A,,Clear,0,2012-10-15 00:53:00
7:53 PM,46.0,36.0,68,30.06,10.0,South,6.9,-,N/A,,Clear,180,2012-10-15 01:53:00
8:53 PM,46.9,33.1,59,30.02,10.0,SSW,8.1,-,N/A,,Clear,210,2012-10-15 02:53:00
9:53 PM,48.9,32.0,52,29.97,10.0,South,5.8,-,N/A,,Clear,190,2012-10-15 03:53:00
10:53 PM,42.1,32.0,67,29.96,10.0,South,4.6,-,N/A,,Clear,190,2012-10-15 04:53:00
11:53 PM,46.9,30.9,54,29.92,10.0,SSW,4.6,-,N/A,,Clear,200,2012-10-15 05:53:00